This is the latest recevied weather packets stored in our database for station/object SV9TNF-56. If no packets are shown the sender has not sent any weather packets the latest 10 day(s).
| Time | Temp. | Humidity | Pressure | Rain* | Wind** | Luminosity | Snow |
|---|---|---|---|---|---|---|---|
| 1788610062 | 27.78° C | 48% | 1013.6 hPa | 0 mm | 8.94 m/s, 156° | - | - |
| 1788609762 | 27.78° C | 47% | 1013.2 hPa | 0 mm | 15.2 m/s, 254° | - | - |
| 1788609462 | 27.78° C | 47% | 1013.6 hPa | 0 mm | 8.49 m/s, 162° | - | - |
| 1788609162 | 27.22° C | 47% | 1013.2 hPa | 0 mm | 16.09 m/s, 269° | - | - |
| 1788608862 | 27.22° C | 47% | 1013.2 hPa | 0 mm | 4.92 m/s, 60° | - | - |
| 1788608562 | 27.22° C | 49% | 1013.2 hPa | 0 mm | 17.88 m/s, 250° | - | - |
| 1788608262 | 26.67° C | 50% | 1013.2 hPa | 0 mm | 12.96 m/s, 222° | - | - |
| 1788607962 | 27.22° C | 49% | 1013.2 hPa | 0 mm | 15.2 m/s, 157° | - | - |
| 1788607662 | 26.67° C | 50% | 1013.2 hPa | 0 mm | 15.2 m/s, 296° | - | - |
| 1788607362 | 27.22° C | 50% | 1013.2 hPa | 0 mm | 19.22 m/s, 191° | - | - |
| 1788607062 | 27.22° C | 50% | 1013.2 hPa | 0 mm | 14.31 m/s, 262° | - | - |
| 1788606761 | 27.22° C | 49% | 1013.2 hPa | 0 mm | 14.31 m/s, 198° | - | - |
| 1788606461 | 26.67° C | 51% | 1013.2 hPa | 0 mm | 18.33 m/s, 119° | - | - |
| 1788606161 | 26.67° C | 52% | 1013.2 hPa | 0 mm | 15.2 m/s, 204° | - | - |
| 1788605861 | 26.67° C | 52% | 1013.2 hPa | 0 mm | 14.75 m/s, 180° | - | - |
| 1788605561 | 26.67° C | 51% | 1013.2 hPa | 0 mm | 15.2 m/s, 258° | - | - |
| 1788605261 | 26.67° C | 51% | 1013.2 hPa | 0 mm | 14.75 m/s, 162° | - | - |
| 1788604961 | 26.67° C | 51% | 1012.9 hPa | 0 mm | 14.75 m/s, 58° | - | - |
| 1788604660 | 26.67° C | 52% | 1013.2 hPa | 0 mm | 15.2 m/s, 213° | - | - |
| 1788604382 | 26.67° C | 51% | 1013.2 hPa | 0 mm | 5.36 m/s, 222° | - | - |
| 1788604060 | 26.67° C | 52% | 1013.2 hPa | 0 mm | 12.96 m/s, 163° | - | - |
| 1788603760 | 26.11° C | 54% | 1013.2 hPa | 0 mm | 13.41 m/s, 164° | - | - |
| 1788603460 | 26.11° C | 57% | 1013.2 hPa | 0 mm | 22.8 m/s, 258° | - | - |
| 1788603160 | 26.67° C | 56% | 1013.2 hPa | 0 mm | 17.88 m/s, 246° | - | - |
| 1788602860 | 26.67° C | 56% | 1013.2 hPa | 0 mm | 12.96 m/s, 115° | - | - |
* Rain latest hour (hover to see other rain measurements)
** Current wind speed in m/s (hover to see current wind gust speed)